Home   Weather   Kiritimati   Past weeks
Flag for Kiribati

Past Weather in Kiritimati, Christmas Island, Kiribati — Yesterday and Last 2 Weeks

Now
86 °F

Scattered clouds.


Feels Like: 95 °F
Forecast: 85 / 79 °F
Wind: 9 mph from East

Location: Christmas / Cassidy

Current Time: Oct 22, 2019 at 1:38:53 pm

Latest Report: Oct 22, 2019 at 1:00 pm


Visibility: N/A

Pressure: 29.80 "Hg

Humidity: 70%

Dew Point: 75 °F

Location of KiritimatiLocation

Past Weather in Kiritimati — Graph

°F

Kiritimati Temperature Yesterday

Maximum temperature yesterday: 86 °F (at 10:00 am)
Minimum temperature yesterday: 79 °F (at 6:00 am)
Average temperature yesterday: 83 °F

High & Low Weather Summary for the Past Weeks

 TemperatureHumidityPressure
High88 °F (Oct 7, 12:00 pm)100% (Oct 7, 8:00 pm)29.92 "Hg (Oct 7, 8:00 pm)
Low73 °F (Oct 17, 5:00 am)27% (Oct 17, 4:00 am)29.71 "Hg (Oct 14, 4:00 am)
Average82 °F75%29.83 "Hg
* Reported Oct 7 12:00 pm — Oct 22 12:00 pm, Kiritimati. Weather by CustomWeather, © 2019

Note: Actual official high and low records may vary slightly from our data, if they occured in-between our weather recording intervals... More about our weather records

Advertising

Kiritimati Weather History for the Previous 24 Hours

Scroll right to see more
 ConditionsComfort  
Time TempWeatherWind HumidityBarometerVisibility
12:00 pm
Tue, Oct 22
84 °FScattered clouds.10 mph70%29.80 "HgN/A
11:00 am86 °FScattered clouds.12 mph70%29.83 "HgN/A
10:00 am86 °FScattered clouds.7 mph70%29.86 "HgN/A
9:00 am84 °FScattered clouds.12 mph70%29.86 "HgN/A
8:00 am82 °FScattered clouds.8 mph79%29.83 "HgN/A
7:00 am81 °FScattered clouds.5 mph79%29.83 "HgN/A
6:00 am79 °FScattered clouds.5 mph79%29.80 "HgN/A
5:00 am79 °FScattered clouds.3 mph84%29.80 "HgN/A
4:00 am79 °FPassing clouds.3 mph84%29.80 "HgN/A
3:00 am79 °FThundershowers. Passing clouds.3 mph79%29.80 "HgN/A
2:00 am77 °FPassing clouds.2 mph94%29.80 "HgN/A
1:00 am79 °FPassing clouds.5 mph79%29.83 "HgN/A
12:00 am79 °FPassing clouds.6 mph84%29.83 "HgN/A
11:00 pm
Mon, Oct 21
79 °FPassing clouds.2 mph84%29.86 "HgN/A
10:00 pm79 °FPassing clouds.3 mph84%29.86 "HgN/A
9:00 pm81 °FPassing clouds.2 mph79%29.86 "HgN/A
8:00 pm81 °FPassing clouds.3 mph79%29.83 "HgN/A
7:00 pm81 °FPassing clouds.3 mph79%29.83 "HgN/A
6:00 pm82 °FPassing clouds.8 mph74%29.80 "HgN/A
5:00 pm84 °FPassing clouds.9 mph70%29.80 "HgN/A
4:00 pm86 °FScattered clouds.7 mph66%29.77 "HgN/A
3:00 pm84 °FScattered clouds.5 mph70%29.77 "HgN/A
2:00 pm86 °FScattered clouds.7 mph70%29.80 "HgN/A
1:00 pm86 °FScattered clouds.6 mph66%29.83 "HgN/A
Weather by CustomWeather, © 2019

See weather overview